Regional Weather Roundup
Issued by NWS

Home | Current Version | Previous Version | Text Only | Print | Product List | Glossary Off
Versions: 1 2 3 4 5 6 7 8 9 10 11 12 13 14 15 16 17 18 19 20 21 22 23 24 25 26 27 28 29 30 31 32 33 34 35 36 37 38 39 40 41 42 43 44 45 46 47 48 49 50

238
ASUS45 KTFX 242110
RWRMT
MONTANA REGIONAL WEATHER ROUNDUP
NATIONAL WEATHER SERVICE GREAT FALLS MT
300 PM MDT SUN JUL 24 2016

NOTE: "FAIR" INDICATES FEW OR NO CLOUDS BELOW 12000 FEET WITH NO
SIGNIFICANT WEATHER AND/OR OBSTRUCTIONS TO VISIBILITY.

MTZ001>007-043-242200-
WEST OF THE DIVIDE

CITY           SKY/WX    TMP DP  RH WIND       PRES   REMARKS
KALISPELL      SUNNY     78  47  33 VRB6      30.08F
MISSOULA       SUNNY     82  42  24 NW9       30.09F
BUTTE          SUNNY     79  32  18 N5        30.18F
MULLAN PASS    SUNNY     68  45  43 VRB6      30.25S
ANACONDA         N/A     81  36  19 NW3       30.13F
DEER LODGE       N/A     79  34  19 E6        30.16F
EUREKA           N/A     81  46  30 NW5       30.06F
HAMILTON         N/A     79  43  27 N6        30.09F
LIBBY            N/A     81  46  30 W8        30.06F
PLAINS           N/A     84  45  25 SW1       30.06F
RONAN            N/A     78  44  29 CALM      30.14F
$$

MTZ008-052>055-242200-
SOUTHWEST MONTANA

CITY           SKY/WX    TMP DP  RH WIND       PRES   REMARKS
BOZEMAN        SUNNY     82  43  25 MISG      30.13F
DILLON         SUNNY     81  35  19 VRB3      30.14F
W YELLOWSTONE  SUNNY     77  28  16 S9G21     30.26F
ENNIS          SUNNY     81  34  18 VRB3G13   30.21S
THREE FORKS      N/A     83  83 100 NE2       30.09  HX  99
TWIN BRIDGES     N/A     82  36  19 S5        30.12F
$$

MTZ009-010-012-014-046-048-049-054-242200-
EAST SLOPES AND CENTRAL MONTANA

CITY           SKY/WX    TMP DP  RH WIND       PRES   REMARKS
CUT BANK       SUNNY     81  39  22 MISG      30.05F
GREAT FALLS    SUNNY     83  34  17 VRB6      30.06F
MALMSTROM AFB  SUNNY     81  34  18 W8        30.07F
HELENA         SUNNY     84  35  17 VRB6G17   30.07F
CHOTEAU          N/A     81  36  19 VRB5      30.08F
CONRAD           N/A     82  44  26 E2        30.08F
$$

MTZ011-013-016-021-045-047-050-051-242200-
NORTH CENTRAL MONTANA

CITY           SKY/WX    TMP DP  RH WIND       PRES   REMARKS
HAVRE          SUNNY     85  41  21 SW10G18   30.00F
LEWISTOWN      SUNNY     80  44  27 NE7       30.10F
N BAR RANCH      N/A     81  37  21 VRB5G17   30.12S
CHINOOK          N/A     84  45  24 CALM      30.01S
$$

MTZ017>020-022>027-061-062-242200-
NORTHEAST MONTANA

CITY           SKY/WX    TMP DP  RH WIND       PRES   REMARKS
GLASGOW        MOSUNNY   88  41  19 W8G18     29.98F
JORDAN           N/A     88  42  20 NW9       30.01F
SIDNEY         MOSUNNY   85  57  38 S10       30.01F
WOLF POINT     MOSUNNY   89  50  26 VRB6      29.99F
PLENTYWOOD       N/A     81  54  39 W5        30.01F
POPLAR           N/A     88  52  29 S7        30.00F
SCOBEY           N/A    101  70  36 SW3       30.01F HX 108
$$

MTZ028>42-056>058-242200-
SOUTHCENTRAL AND SOUTHEAST MONTANA

CITY           SKY/WX    TMP DP  RH WIND       PRES   REMARKS
BAKER          MOSUNNY   84  44  24 CALM      30.08F
BILLINGS       MOSUNNY   87  38  17 S10       30.06F
LIVINGSTON     SUNNY     86  36  16 W8        30.10F
MILES CITY     MOSUNNY   90  41  18 VRB3      30.01F
EKALAKA          N/A     84  41  22 S3        30.07F
FORSYTH          N/A     90  43  19 NW3       30.00F
LAUREL           N/A     87  40  19 CALM      30.05F
ROUNDUP          N/A     86  39  18 S7        29.97F
$$

REGIONAL REPORTS...DAKOTAS

CITY           SKY/WX    TMP DP  RH WIND       PRES   REMARKS
WILLISTON      MOSUNNY   84  51  31 W3        30.02S
MINOT          SUNNY     83  55  38 NW17      29.99S
DICKINSON      SUNNY     81  49  32 VRB6      30.06F
BEACH          PTSUNNY   84  45  24 N6        30.09F
CROSBY           N/A     77  57  50 NW9G16    30.03F
WATFORD CITY     N/A    N/A N/A N/A MISG        N/A
BISMARCK       SUNNY     85  54  34 NW18G25   30.03S
GRAND FORKS    PTSUNNY   81  63  54 NW16G26   29.89R
FARGO          MOSUNNY   82  58  43 NW21G28   29.92R
BUFFALO SD       N/A     88  43  20 S9        30.03F
RAPID CITY     MOSUNNY   86  48  26 S8        30.11F
$$

REGIONAL REPORTS...WYOMING/IDAHO/WASHINGTON

CITY           SKY/WX    TMP DP  RH WIND       PRES   REMARKS
GILLETTE       MOSUNNY   86  43  22 SE12G21   30.12F
SHERIDAN       SUNNY     90  40  17 SE10      30.07F
BUFFALO WY     SUNNY     86  41  20 SE15G23   30.14F
CODY           SUNNY     82  37  20 E8        30.13F
YELLOWSTONE LA   N/A     73  23  15 VRB7G16   30.35F
IDAHO FALLS    SUNNY     83  32  16 SW8       30.15F
SALMON         SUNNY     82  37  20 NW7       30.04F
BOISE          SUNNY     90  36  14 NW8       30.03F
SPOKANE        MOSUNNY   83  42  23 W7        30.08F
$$

REGIONAL REPORTS...ALBERTA

CITY           SKY/WX    TMP DP  RH WIND       PRES   REMARKS
EDMONTON       MOSUNNY   81  52  36 W13G21    29.87F
CALGARY        MOSUNNY   75  50  41 SE13G22   29.99F
LETHBRIDGE     MOSUNNY   79  46  31 VRB16     30.01F
MEDICINE HAT   MOSUNNY   81  55  41 SW3       29.97F
WATERTON GATE    N/A     77  46  33 SW16G23     N/A
MILK RIVER       N/A     81  43  26 W7          N/A
$$

REGIONAL REPORTS...SASKATCHEWAN

CITY           SKY/WX    TMP DP  RH WIND       PRES   REMARKS
SWIFT CURRENT  SUNNY     77  57  50 SE8       30.00F HAZE
REGINA         MOSUNNY   75  54  46 NW16      30.00R
SASKATOON      MOSUNNY   77  54  44 NW10G18   29.95F
CYPRESS HILLS    N/A     75  48  38 W2          N/A
VAL MARIE        N/A     81  48  32 NW5         N/A
ASSINIBOIA       N/A     79  52  38 SW13G18     N/A
$$




USA.gov is the U.S. government's official web portal to all federal, state and local government web resources and services.